Time,TemperatureF,DewpointF,PressureIn,WindDirection,WindDirectionDegrees,WindSpeedMPH,WindSpeedGustMPH,Humidity,HourlyPrecipIn,Conditions,Clouds,dailyrainin,SoftwareType,DateUTC
2016-02-13 00:02:00,53.7,37.0,30.13,NE,40,1.0,1.0,53,0.00,,,0.00,Wunderground v.1.15,2016-02-13 08:02:00,
2016-02-13 00:08:00,53.8,36.6,30.13,NE,40,1.0,1.0,52,0.00,,,0.00,Wunderground v.1.15,2016-02-13 08:08:00,
2016-02-13 00:13:00,53.9,36.7,30.14,NE,40,0.0,1.0,52,0.00,,,0.00,Wunderground v.1.15,2016-02-13 08:13:00,
2016-02-13 00:19:00,54.0,36.8,30.13,NE,40,1.0,1.0,52,0.00,,,0.00,Wunderground v.1.15,2016-02-13 08:19:00,
2016-02-13 00:24:00,54.0,36.8,30.13,NE,40,1.0,1.0,52,0.00,,,0.00,Wunderground v.1.15,2016-02-13 08:24:00,
2016-02-13 00:35:00,53.9,36.2,30.13,NE,40,0.0,1.0,51,0.00,,,0.00,Wunderground v.1.15,2016-02-13 08:35:00,
2016-02-13 00:40:00,53.8,35.6,30.13,NE,40,0.0,1.0,50,0.00,,,0.00,Wunderground v.1.15,2016-02-13 08:40:00,
2016-02-13 00:51:00,53.6,34.9,30.13,NE,40,0.0,1.0,49,0.00,,,0.00,Wunderground v.1.15,2016-02-13 08:51:00,
2016-02-13 00:57:00,53.4,34.2,30.13,NE,40,0.0,1.0,48,0.00,,,0.00,Wunderground v.1.15,2016-02-13 08:57:00,
2016-02-13 01:02:00,53.3,34.1,30.13,NE,40,0.0,1.0,48,0.00,,,0.00,Wunderground v.1.15,2016-02-13 09:02:00,
2016-02-13 01:14:00,53.2,32.9,30.13,NE,40,1.0,1.0,46,0.00,,,0.00,Wunderground v.1.15,2016-02-13 09:14:00,
2016-02-13 01:19:00,53.3,32.5,30.13,NE,40,1.0,2.0,45,0.00,,,0.00,Wunderground v.1.15,2016-02-13 09:19:00,
2016-02-13 01:25:00,53.4,32.6,30.14,NE,40,1.0,1.0,45,0.00,,,0.00,Wunderground v.1.15,2016-02-13 09:25:00,
2016-02-13 01:41:00,53.5,34.8,30.13,NE,40,1.0,1.0,49,0.00,,,0.00,Wunderground v.1.15,2016-02-13 09:41:00,
2016-02-13 01:46:00,53.3,35.1,30.13,NE,40,1.0,1.0,50,0.00,,,0.00,Wunderground v.1.15,2016-02-13 09:46:00,
2016-02-13 01:52:00,53.2,35.0,30.14,NE,40,0.0,1.0,50,0.00,,,0.00,Wunderground v.1.15,2016-02-13 09:52:00,
2016-02-13 01:57:00,53.1,34.4,30.14,NE,40,0.0,0.0,49,0.00,,,0.00,Wunderground v.1.15,2016-02-13 09:57:00,
2016-02-13 02:02:00,52.9,35.2,30.14,NE,40,0.0,1.0,51,0.00,,,0.00,Wunderground v.1.15,2016-02-13 10:02:00,
2016-02-13 02:13:00,52.4,34.8,30.14,NE,40,0.0,1.0,51,0.00,,,0.00,Wunderground v.1.15,2016-02-13 10:13:00,
2016-02-13 02:19:00,52.3,33.7,30.14,NE,40,1.0,1.0,49,0.00,,,0.00,Wunderground v.1.15,2016-02-13 10:19:00,
2016-02-13 02:24:00,52.3,34.2,30.14,NE,40,1.0,1.0,50,0.00,,,0.00,Wunderground v.1.15,2016-02-13 10:24:00,
2016-02-13 02:30:00,52.1,34.5,30.14,NE,40,0.0,1.0,51,0.00,,,0.00,Wunderground v.1.15,2016-02-13 10:30:00,
2016-02-13 02:35:00,51.7,34.1,30.14,NE,40,0.0,1.0,51,0.00,,,0.00,Wunderground v.1.15,2016-02-13 10:35:00,
2016-02-13 02:41:00,51.6,33.6,30.15,NE,40,0.0,2.0,50,0.00,,,0.00,Wunderground v.1.15,2016-02-13 10:41:00,
2016-02-13 02:46:00,51.8,34.2,30.15,NE,40,1.0,2.0,51,0.00,,,0.00,Wunderground v.1.15,2016-02-13 10:46:00,
2016-02-13 02:51:00,51.8,33.7,30.14,NE,40,0.0,1.0,50,0.00,,,0.00,Wunderground v.1.15,2016-02-13 10:51:00,
2016-02-13 02:57:00,51.7,33.6,30.14,NE,40,0.0,1.0,50,0.00,,,0.00,Wunderground v.1.15,2016-02-13 10:57:00,
2016-02-13 03:02:00,51.6,34.0,30.14,NE,40,0.0,1.0,51,0.00,,,0.00,Wunderground v.1.15,2016-02-13 11:02:00,
2016-02-13 03:08:00,51.4,33.9,30.14,NE,40,1.0,1.0,51,0.00,,,0.00,Wunderground v.1.15,2016-02-13 11:08:00,
2016-02-13 03:13:00,51.3,34.3,30.14,NE,40,1.0,1.0,52,0.00,,,0.00,Wunderground v.1.15,2016-02-13 11:13:00,
2016-02-13 03:19:00,51.3,34.7,30.14,NE,40,1.0,1.0,53,0.00,,,0.00,Wunderground v.1.15,2016-02-13 11:19:00,
2016-02-13 03:24:00,51.2,34.2,30.14,NE,40,0.0,1.0,52,0.00,,,0.00,Wunderground v.1.15,2016-02-13 11:24:00,
2016-02-13 03:30:00,51.2,33.7,30.14,NE,40,0.0,1.0,51,0.00,,,0.00,Wunderground v.1.15,2016-02-13 11:30:00,
2016-02-13 03:35:00,51.1,33.1,30.14,NE,40,0.0,1.0,50,0.00,,,0.00,Wunderground v.1.15,2016-02-13 11:35:00,
2016-02-13 03:40:00,51.0,31.5,30.14,NE,40,1.0,2.0,47,0.00,,,0.00,Wunderground v.1.15,2016-02-13 11:40:00,
2016-02-13 03:46:00,51.0,31.5,30.14,NE,40,1.0,2.0,47,0.00,,,0.00,Wunderground v.1.15,2016-02-13 11:46:00,
2016-02-13 03:51:00,51.2,31.1,30.14,NE,40,1.0,1.0,46,0.00,,,0.00,Wunderground v.1.15,2016-02-13 11:51:00,
2016-02-13 03:57:00,51.2,31.1,30.14,NE,40,1.0,2.0,46,0.00,,,0.00,Wunderground v.1.15,2016-02-13 11:57:00,
2016-02-13 04:02:00,51.2,31.1,30.14,NE,40,1.0,1.0,46,0.00,,,0.00,Wunderground v.1.15,2016-02-13 12:02:00,
2016-02-13 04:08:00,51.2,31.6,30.14,NE,40,1.0,1.0,47,0.00,,,0.00,Wunderground v.1.15,2016-02-13 12:08:00,
2016-02-13 04:13:00,51.3,32.3,30.14,NE,40,1.0,2.0,48,0.00,,,0.00,Wunderground v.1.15,2016-02-13 12:13:00,
2016-02-13 04:19:00,51.4,32.3,30.15,NE,40,1.0,2.0,48,0.00,,,0.00,Wunderground v.1.15,2016-02-13 12:19:00,
2016-02-13 04:24:00,51.5,33.0,30.14,NE,40,1.0,2.0,49,0.00,,,0.00,Wunderground v.1.15,2016-02-13 12:24:00,
2016-02-13 04:30:00,51.5,32.4,30.15,NE,40,1.0,1.0,48,0.00,,,0.00,Wunderground v.1.15,2016-02-13 12:30:00,
2016-02-13 04:36:00,51.2,31.6,30.15,NE,40,0.0,1.0,47,0.00,,,0.00,Wunderground v.1.15,2016-02-13 12:36:00,
2016-02-13 04:41:00,51.1,31.6,30.15,NE,40,1.0,1.0,47,0.00,,,0.00,Wunderground v.1.15,2016-02-13 12:41:00,
2016-02-13 04:47:00,51.0,31.5,30.15,NE,40,0.0,1.0,47,0.00,,,0.00,Wunderground v.1.15,2016-02-13 12:47:00,
2016-02-13 04:58:00,50.6,31.1,30.15,NE,40,0.0,1.0,47,0.00,,,0.00,Wunderground v.1.15,2016-02-13 12:58:00,
2016-02-13 05:03:00,50.6,31.1,30.15,NE,40,0.0,1.0,47,0.00,,,0.00,Wunderground v.1.15,2016-02-13 13:03:00,
2016-02-13 05:09:00,50.6,30.6,30.15,NE,40,0.0,1.0,46,0.00,,,0.00,Wunderground v.1.15,2016-02-13 13:09:00,
2016-02-13 05:14:00,50.6,31.1,30.16,NE,40,0.0,1.0,47,0.00,,,0.00,Wunderground v.1.15,2016-02-13 13:14:00,
2016-02-13 05:25:00,51.3,31.7,30.16,NE,40,1.0,3.0,47,0.00,,,0.00,Wunderground v.1.15,2016-02-13 13:25:00,
2016-02-13 05:30:00,51.6,31.5,30.16,NE,40,1.0,1.0,46,0.00,,,0.00,Wunderground v.1.15,2016-02-13 13:30:00,
2016-02-13 05:36:00,51.8,31.7,30.16,NE,40,1.0,1.0,46,0.00,,,0.00,Wunderground v.1.15,2016-02-13 13:36:00,
2016-02-13 05:41:00,51.8,31.1,30.16,NE,40,1.0,1.0,45,0.00,,,0.00,Wunderground v.1.15,2016-02-13 13:41:00,
2016-02-13 05:47:00,51.9,31.2,30.16,NE,40,1.0,1.0,45,0.00,,,0.00,Wunderground v.1.15,2016-02-13 13:47:00,
2016-02-13 05:52:00,51.9,31.2,30.16,NE,40,1.0,1.0,45,0.00,,,0.00,Wunderground v.1.15,2016-02-13 13:52:00,
2016-02-13 05:58:00,51.9,31.2,30.16,NE,40,1.0,1.0,45,0.00,,,0.00,Wunderground v.1.15,2016-02-13 13:58:00,
2016-02-13 06:03:00,51.7,31.0,30.17,NE,40,1.0,1.0,45,0.00,,,0.00,Wunderground v.1.15,2016-02-13 14:03:00,
2016-02-13 06:08:00,51.6,30.9,30.17,NE,40,1.0,1.0,45,0.00,,,0.00,Wunderground v.1.15,2016-02-13 14:08:00,
2016-02-13 06:14:00,51.6,30.9,30.17,NE,40,1.0,1.0,45,0.00,,,0.00,Wunderground v.1.15,2016-02-13 14:14:00,
2016-02-13 06:19:00,51.6,31.5,30.17,NE,40,1.0,1.0,46,0.00,,,0.00,Wunderground v.1.15,2016-02-13 14:19:00,
2016-02-13 06:25:00,51.4,31.8,30.18,NE,40,0.0,1.0,47,0.00,,,0.00,Wunderground v.1.15,2016-02-13 14:25:00,
2016-02-13 06:30:00,51.2,31.6,30.18,NE,40,0.0,1.0,47,0.00,,,0.00,Wunderground v.1.15,2016-02-13 14:30:00,
2016-02-13 06:36:00,50.9,31.9,30.18,NE,40,0.0,1.0,48,0.00,,,0.00,Wunderground v.1.15,2016-02-13 14:36:00,
2016-02-13 06:41:00,50.5,31.5,30.18,NE,40,0.0,1.0,48,0.00,,,0.00,Wunderground v.1.15,2016-02-13 14:41:00,
2016-02-13 06:47:00,50.1,31.2,30.18,NE,40,0.0,1.0,48,0.00,,,0.00,Wunderground v.1.15,2016-02-13 14:47:00,
2016-02-13 06:52:00,49.7,31.3,30.18,NE,40,0.0,1.0,49,0.00,,,0.00,Wunderground v.1.15,2016-02-13 14:52:00,
2016-02-13 06:57:00,49.4,31.0,30.18,NE,40,0.0,1.0,49,0.00,,,0.00,Wunderground v.1.15,2016-02-13 14:57:00,
2016-02-13 07:08:00,49.3,30.9,30.18,NE,40,1.0,1.0,49,0.00,,,0.00,Wunderground v.1.15,2016-02-13 15:08:00,
2016-02-13 07:14:00,49.6,31.2,30.19,NE,40,1.0,1.0,49,0.00,,,0.00,Wunderground v.1.15,2016-02-13 15:14:00,
2016-02-13 07:19:00,50.0,31.1,30.19,NE,40,1.0,2.0,48,0.00,,,0.00,Wunderground v.1.15,2016-02-13 15:19:00,
2016-02-13 07:24:00,50.4,31.4,30.19,NE,40,1.0,1.0,48,0.00,,,0.00,Wunderground v.1.15,2016-02-13 15:24:00,
2016-02-13 07:30:00,50.8,32.3,30.19,NE,40,0.0,1.0,49,0.00,,,0.00,Wunderground v.1.15,2016-02-13 15:30:00,
2016-02-13 07:35:00,51.0,32.5,30.19,NE,40,0.0,1.0,49,0.00,,,0.00,Wunderground v.1.15,2016-02-13 15:35:00,
2016-02-13 07:41:00,51.1,32.6,30.20,NE,40,0.0,1.0,49,0.00,,,0.00,Wunderground v.1.15,2016-02-13 15:41:00,
2016-02-13 07:46:00,51.1,33.1,30.20,NE,40,0.0,1.0,50,0.00,,,0.00,Wunderground v.1.15,2016-02-13 15:46:00,
2016-02-13 07:52:00,51.0,33.0,30.20,NE,40,0.0,1.0,50,0.00,,,0.00,Wunderground v.1.15,2016-02-13 15:52:00,
2016-02-13 08:03:00,51.0,32.0,30.20,NE,40,0.0,1.0,48,0.00,,,0.00,Wunderground v.1.15,2016-02-13 16:03:00,
2016-02-13 08:08:00,51.0,32.0,30.20,NE,40,0.0,1.0,48,0.00,,,0.00,Wunderground v.1.15,2016-02-13 16:08:00,
2016-02-13 08:13:00,51.2,32.7,30.20,NE,40,0.0,1.0,49,0.00,,,0.00,Wunderground v.1.15,2016-02-13 16:13:00,
2016-02-13 08:19:00,51.5,33.0,30.19,NE,40,0.0,1.0,49,0.00,,,0.00,Wunderground v.1.15,2016-02-13 16:19:00,
2016-02-13 08:24:00,51.9,32.8,30.19,NE,40,0.0,1.0,48,0.00,,,0.00,Wunderground v.1.15,2016-02-13 16:24:00,
2016-02-13 08:30:00,52.5,35.8,30.20,NE,40,0.0,1.0,53,0.00,,,0.00,Wunderground v.1.15,2016-02-13 16:30:00,
2016-02-13 08:35:00,53.0,35.8,30.20,NE,40,0.0,1.0,52,0.00,,,0.00,Wunderground v.1.15,2016-02-13 16:35:00,
2016-02-13 08:41:00,53.6,36.4,30.20,NE,40,0.0,1.0,52,0.00,,,0.00,Wunderground v.1.15,2016-02-13 16:41:00,
2016-02-13 08:46:00,54.2,36.5,30.20,NE,40,0.0,1.0,51,0.00,,,0.00,Wunderground v.1.15,2016-02-13 16:46:00,
2016-02-13 08:57:00,56.4,37.5,30.20,NE,40,0.0,1.0,49,0.00,,,0.00,Wunderground v.1.15,2016-02-13 16:57:00,
2016-02-13 09:02:00,57.8,39.3,30.20,NE,40,0.0,1.0,50,0.00,,,0.00,Wunderground v.1.15,2016-02-13 17:02:00,
2016-02-13 09:08:00,58.7,39.6,30.19,NE,40,0.0,1.0,49,0.00,,,0.00,Wunderground v.1.15,2016-02-13 17:08:00,
2016-02-13 09:13:00,58.9,39.2,30.20,NE,40,0.0,1.0,48,0.00,,,0.00,Wunderground v.1.15,2016-02-13 17:13:00,
2016-02-13 09:18:00,59.2,37.9,30.19,NE,40,0.0,1.0,45,0.00,,,0.00,Wunderground v.1.15,2016-02-13 17:18:00,
2016-02-13 09:24:00,59.8,37.8,30.20,NE,40,0.0,1.0,44,0.00,,,0.00,Wunderground v.1.15,2016-02-13 17:24:00,
2016-02-13 09:29:00,60.4,34.7,30.20,NE,40,0.0,1.0,38,0.00,,,0.00,Wunderground v.1.15,2016-02-13 17:29:00,
2016-02-13 09:35:00,61.4,39.9,30.19,NE,40,0.0,1.0,45,0.00,,,0.00,Wunderground v.1.15,2016-02-13 17:35:00,
2016-02-13 09:40:00,62.1,41.6,30.19,East,101,0.0,1.0,47,0.00,,,0.00,Wunderground v.1.15,2016-02-13 17:40:00,
2016-02-13 09:46:00,62.6,39.2,30.19,ESE,117,1.0,2.0,42,0.00,,,0.00,Wunderground v.1.15,2016-02-13 17:46:00,
2016-02-13 09:51:00,62.8,38.7,30.19,ESE,118,1.0,2.0,41,0.00,,,0.00,Wunderground v.1.15,2016-02-13 17:51:00,
2016-02-13 09:57:00,63.0,39.5,30.19,ESE,119,1.0,2.0,42,0.00,,,0.00,Wunderground v.1.15,2016-02-13 17:57:00,
2016-02-13 10:02:00,63.2,38.5,30.20,ESE,119,0.0,1.0,40,0.00,,,0.00,Wunderground v.1.15,2016-02-13 18:02:00,
2016-02-13 10:07:00,63.5,35.3,30.19,ESE,119,0.0,1.0,35,0.00,,,0.00,Wunderground v.1.15,2016-02-13 18:07:00,
2016-02-13 10:13:00,63.7,36.2,30.19,ESE,119,0.0,2.0,36,0.00,,,0.00,Wunderground v.1.15,2016-02-13 18:13:00,
2016-02-13 10:18:00,63.9,36.4,30.19,SE,138,1.0,2.0,36,0.00,,,0.00,Wunderground v.1.15,2016-02-13 18:18:00,
2016-02-13 10:24:00,64.2,36.0,30.19,SE,138,1.0,1.0,35,0.00,,,0.00,Wunderground v.1.15,2016-02-13 18:24:00,
2016-02-13 10:29:00,64.6,34.1,30.20,SE,139,0.0,1.0,32,0.00,,,0.00,Wunderground v.1.15,2016-02-13 18:29:00,
2016-02-13 10:34:00,65.0,35.9,30.20,SE,139,0.0,1.0,34,0.00,,,0.00,Wunderground v.1.15,2016-02-13 18:34:00,
2016-02-13 10:40:00,65.2,34.6,30.20,SE,143,1.0,4.0,32,0.00,,,0.00,Wunderground v.1.15,2016-02-13 18:40:00,
2016-02-13 10:45:00,65.7,37.3,30.20,SE,143,0.0,4.0,35,0.00,,,0.00,Wunderground v.1.15,2016-02-13 18:45:00,
2016-02-13 10:51:00,66.1,35.4,30.20,SSE,147,1.0,2.0,32,0.00,,,0.00,Wunderground v.1.15,2016-02-13 18:51:00,
2016-02-13 10:57:00,66.0,34.5,30.19,SSE,163,1.0,2.0,31,0.00,,,0.00,Wunderground v.1.15,2016-02-13 18:57:00,
2016-02-13 11:03:00,65.9,30.9,30.19,SSE,162,1.0,2.0,27,0.00,,,0.00,Wunderground v.1.15,2016-02-13 19:03:00,
2016-02-13 11:08:00,65.9,32.7,30.19,SSE,162,1.0,2.0,29,0.00,,,0.00,Wunderground v.1.15,2016-02-13 19:08:00,
2016-02-13 11:14:00,66.3,32.2,30.19,NNW,344,0.0,2.0,28,0.00,,,0.00,Wunderground v.1.15,2016-02-13 19:14:00,
2016-02-13 11:19:00,66.3,32.2,30.20,WNW,301,1.0,4.0,28,0.00,,,0.00,Wunderground v.1.15,2016-02-13 19:19:00,
2016-02-13 11:25:00,65.8,26.9,30.19,NNW,329,1.0,4.0,23,0.00,,,0.00,Wunderground v.1.15,2016-02-13 19:25:00,
2016-02-13 11:30:00,65.5,26.7,30.19,ESE,113,1.0,1.0,23,0.00,,,0.00,Wunderground v.1.15,2016-02-13 19:30:00,
2016-02-13 11:36:00,65.4,24.4,30.19,NNW,344,1.0,4.0,21,0.00,,,0.00,Wunderground v.1.15,2016-02-13 19:36:00,
2016-02-13 11:42:00,65.3,28.5,30.19,NE,50,2.0,2.0,25,0.00,,,0.00,Wunderground v.1.15,2016-02-13 19:42:00,
2016-02-13 11:48:00,65.4,31.4,30.19,NE,55,1.0,3.0,28,0.00,,,0.00,Wunderground v.1.15,2016-02-13 19:48:00,
2016-02-13 11:53:00,65.6,32.5,30.18,ENE,66,1.0,2.0,29,0.00,,,0.00,Wunderground v.1.15,2016-02-13 19:53:00,
2016-02-13 11:59:00,65.9,34.4,30.18,SSE,149,1.0,2.0,31,0.00,,,0.00,Wunderground v.1.15,2016-02-13 19:59:00,
2016-02-13 12:04:00,65.9,31.8,30.19,East,84,1.0,2.0,28,0.00,,,0.00,Wunderground v.1.15,2016-02-13 20:04:00,
2016-02-13 12:10:00,65.9,31.8,30.19,East,93,0.0,1.0,28,0.00,,,0.00,Wunderground v.1.15,2016-02-13 20:10:00,
2016-02-13 12:21:00,65.6,31.6,30.19,East,90,2.0,5.0,28,0.00,,,0.00,Wunderground v.1.15,2016-02-13 20:21:00,
2016-02-13 12:26:00,65.6,32.5,30.19,ENE,67,2.0,5.0,29,0.00,,,0.00,Wunderground v.1.15,2016-02-13 20:26:00,
2016-02-13 12:31:00,65.7,34.2,30.18,ENE,71,2.0,2.0,31,0.00,,,0.00,Wunderground v.1.15,2016-02-13 20:31:00,
2016-02-13 12:37:00,65.8,35.1,30.18,ESE,110,2.0,5.0,32,0.00,,,0.00,Wunderground v.1.15,2016-02-13 20:37:00,
2016-02-13 12:42:00,65.6,35.7,30.18,South,180,2.0,3.0,33,0.00,,,0.00,Wunderground v.1.15,2016-02-13 20:42:00,
2016-02-13 12:48:00,65.6,36.5,30.18,WNW,283,2.0,5.0,34,0.00,,,0.00,Wunderground v.1.15,2016-02-13 20:48:00,
2016-02-13 12:53:00,65.6,34.9,30.17,NNW,348,3.0,7.0,32,0.00,,,0.00,Wunderground v.1.15,2016-02-13 20:53:00,
2016-02-13 12:59:00,65.6,35.7,30.17,SSE,163,2.0,7.0,33,0.00,,,0.00,Wunderground v.1.15,2016-02-13 20:59:00,
2016-02-13 13:04:00,65.3,34.7,30.16,East,93,2.0,8.0,32,0.00,,,0.00,Wunderground v.1.15,2016-02-13 21:04:00,
2016-02-13 13:10:00,64.9,35.8,30.16,ENE,57,2.0,2.0,34,0.00,,,0.00,Wunderground v.1.15,2016-02-13 21:10:00,
2016-02-13 13:15:00,64.8,35.0,30.16,SSE,165,1.0,5.0,33,0.00,,,0.00,Wunderground v.1.15,2016-02-13 21:15:00,
2016-02-13 13:20:00,64.8,35.0,30.15,SSE,158,2.0,2.0,33,0.00,,,0.00,Wunderground v.1.15,2016-02-13 21:20:00,
2016-02-13 13:26:00,64.7,34.1,30.15,SE,140,2.0,6.0,32,0.00,,,0.00,Wunderground v.1.15,2016-02-13 21:26:00,
2016-02-13 13:31:00,64.5,34.0,30.15,ESE,119,3.0,6.0,32,0.00,,,0.00,Wunderground v.1.15,2016-02-13 21:31:00,
2016-02-13 13:37:00,64.4,34.6,30.15,SE,136,2.0,6.0,33,0.00,,,0.00,Wunderground v.1.15,2016-02-13 21:37:00,
2016-02-13 13:42:00,64.5,35.5,30.15,SSW,194,1.0,2.0,34,0.00,,,0.00,Wunderground v.1.15,2016-02-13 21:42:00,
2016-02-13 13:48:00,64.5,34.7,30.15,East,88,2.0,5.0,33,0.00,,,0.00,Wunderground v.1.15,2016-02-13 21:48:00,
2016-02-13 13:53:00,64.5,35.5,30.15,SSE,164,2.0,2.0,34,0.00,,,0.00,Wunderground v.1.15,2016-02-13 21:53:00,
2016-02-13 13:59:00,64.8,35.8,30.15,SSE,151,2.0,4.0,34,0.00,,,0.00,Wunderground v.1.15,2016-02-13 21:59:00,
2016-02-13 14:04:00,64.9,35.8,30.15,SSE,164,2.0,2.0,34,0.00,,,0.00,Wunderground v.1.15,2016-02-13 22:04:00,
2016-02-13 14:09:00,64.9,35.8,30.14,SSE,159,1.0,1.0,34,0.00,,,0.00,Wunderground v.1.15,2016-02-13 22:09:00,
2016-02-13 14:15:00,65.0,38.1,30.14,SSE,159,1.0,1.0,37,0.00,,,0.00,Wunderground v.1.15,2016-02-13 22:15:00,
2016-02-13 14:26:00,64.8,35.8,30.14,ENE,59,2.0,6.0,34,0.00,,,0.00,Wunderground v.1.15,2016-02-13 22:26:00,
2016-02-13 14:31:00,64.8,35.8,30.14,West,280,1.0,2.0,34,0.00,,,0.00,Wunderground v.1.15,2016-02-13 22:31:00,
2016-02-13 14:37:00,65.0,35.9,30.14,NE,34,1.0,2.0,34,0.00,,,0.00,Wunderground v.1.15,2016-02-13 22:37:00,
2016-02-13 14:42:00,65.1,36.0,30.14,SSE,167,1.0,2.0,34,0.00,,,0.00,Wunderground v.1.15,2016-02-13 22:42:00,
2016-02-13 14:53:00,65.3,35.4,30.14,SSE,157,2.0,3.0,33,0.00,,,0.00,Wunderground v.1.15,2016-02-13 22:53:00,
2016-02-13 14:58:00,65.4,38.4,30.14,WNW,287,2.0,3.0,37,0.00,,,0.00,Wunderground v.1.15,2016-02-13 22:58:00,
2016-02-13 15:04:00,65.6,37.2,30.13,ENE,66,1.0,1.0,35,0.00,,,0.00,Wunderground v.1.15,2016-02-13 23:04:00,
2016-02-13 15:09:00,65.6,37.9,30.14,West,272,1.0,5.0,36,0.00,,,0.00,Wunderground v.1.15,2016-02-13 23:09:00,
2016-02-13 15:15:00,65.8,39.5,30.14,West,272,1.0,1.0,38,0.00,,,0.00,Wunderground v.1.15,2016-02-13 23:15:00,
2016-02-13 15:20:00,65.7,38.7,30.14,South,184,1.0,1.0,37,0.00,,,0.00,Wunderground v.1.15,2016-02-13 23:20:00,
2016-02-13 15:25:00,65.3,38.3,30.14,East,88,1.0,2.0,37,0.00,,,0.00,Wunderground v.1.15,2016-02-13 23:25:00,
2016-02-13 15:31:00,64.8,39.9,30.13,SSE,150,1.0,1.0,40,0.00,,,0.00,Wunderground v.1.15,2016-02-13 23:31:00,
2016-02-13 15:36:00,64.3,38.8,30.14,SSW,213,1.0,4.0,39,0.00,,,0.00,Wunderground v.1.15,2016-02-13 23:36:00,
2016-02-13 15:42:00,63.8,38.4,30.14,SE,145,1.0,4.0,39,0.00,,,0.00,Wunderground v.1.15,2016-02-13 23:42:00,
2016-02-13 15:47:00,63.4,39.3,30.14,South,184,2.0,5.0,41,0.00,,,0.00,Wunderground v.1.15,2016-02-13 23:47:00,
2016-02-13 15:53:00,62.9,40.6,30.14,NNW,343,1.0,2.0,44,0.00,,,0.00,Wunderground v.1.15,2016-02-13 23:53:00,
2016-02-13 15:58:00,62.5,40.3,30.14,NNW,341,1.0,5.0,44,0.00,,,0.00,Wunderground v.1.15,2016-02-13 23:58:00,
2016-02-13 16:04:00,62.5,39.7,30.14,SSE,147,1.0,1.0,43,0.00,,,0.00,Wunderground v.1.15,2016-02-14 00:04:00,